www.pogodaiklimat.ru

Погода и климат >> Архив погоды >> Южная Африка >> Парк Tsitsikamma


ПОГОДА в Парке Tsitsikamma

  • Прогноз погоды в Парке Tsitsikamma
  • Монитор погоды в Парке Tsitsikamma

АРХИВ ПОГОДЫ в Парке Tsitsikamma

Время (UTC), дата Ветер
(напр.,м/с)
 
Видим.   Явления Облачность Т
(С)
Тd
(С)
f
(%)
Тe
(С)
Тes
(С)
Комфортность P
(гПа)
Po
(гПа)
Тmin
(С)
Tmax
(С)
R
(мм)
R24
(мм)
S
(см)
09 15.08 штиль 0 н/о н/о +22.4 +15.3 64 +26 +26 жарко 1027.6 1026.8 +11.3 +22.4
12 15.08 З 3 н/о н/о +21.5 +14.0 62 +24 +24 комфорт 1025.9 1025.1 +11.3 +24.1
15 15.08 штиль 0 н/о н/о +19.2 +13.8 71 +20 +20 1024.6 1023.8 +19.2 +24.1
18 15.08 В 3 н/о н/о +14.3 +10.1 76 +14 +14 1025.7 1024.9 +13.3 +24.1
21 15.08 СВ 3 н/о н/о +12.7 +8.4 75 +12 +12 1024.6 1023.8 +12.7 +24.1
00 16.08 В 4 н/о н/о +11.9 +8.2 78 +10 +10 1024.1 1023.3 +11.5 +24.1
03 16.08 С 2 н/о н/о +15.3 +10.9 75 +15 +15 1022.1 1021.3 +11.5 +24.1
06 16.08 СВ 1 н/о н/о +14.6 +11.5 82 +15 +15 1024.7 1023.9 +11.5
09 16.08 З 7 н/о н/о +17.6 +12.7 73 +17 +17 1026.2 1025.4 +11.5 +17.6
12 16.08 З 6 н/о н/о +18.6 +12.6 68 +19 +19 1025.2 1024.4 +11.5 +18.9
15 16.08 З 6 н/о н/о +17.1 +12.0 72 +16 +16 1026.6 1025.8 +17.0 +18.9
18 16.08 СВ 2 н/о н/о +15.1 +10.5 74 +15 +15 1027.9 1027.1 +15.1 +18.9
21 16.08 СВ 4 н/о н/о +16.2 +11.0 71 +15 +15 1028.1 1027.3 +15.1 +18.9
00 17.08 ЮЗ 6 н/о н/о +17.1 +12.8 76 +16 +16 1029.1 1028.3 +15.1 +18.9
03 17.08 штиль 0 н/о н/о +14.3 +12.7 90 +14 +14 1029.4 1028.6 +14.1 +18.9
06 17.08 В 5 н/о н/о +13.7 +12.6 93 +12 +12 1030.4 1029.6 +13.6 16
09 17.08 В 8 н/о н/о +16.6 +13.7 83 +15 +15 1029.6 1028.8 +13.6 +16.6
12 17.08 В 10 н/о н/о +18.3 +14.0 76 +18 +18 1026.3 1025.5 +13.6 +18.6
15 17.08 В 11 н/о н/о +16.8 +13.5 81 +15 +15 1024.6 1023.8 +16.8 +18.6
18 17.08 В 7 н/о н/о +15.5 +12.4 82 +14 +14 1023.9 1023.1 +15.5 +18.6
21 17.08 В 4 н/о н/о +14.8 +11.6 81 +14 +14 1021.1 1020.3 +14.7 +18.6
00 18.08 С 1 н/о н/о +13.3 +10.6 84 +13 +13 1017.6 1016.8 +13.3 +18.6
03 18.08 СВ 1 н/о н/о +13.8 +10.6 81 +14 +14 1016.0 1015.2 +13.3 +18.6
06 18.08 СВ 1 н/о н/о +13.7 +11.0 84 +14 +14 1014.6 1013.8 +13.3
09 18.08 штиль 0 н/о н/о +21.7 +15.8 69 +25 +25 комфорт 1013.7 1012.9 +13.3 +21.7
12 18.08 З 3 н/о н/о +22.5 +16.6 69 +27 +27 душно 1012.9 1012.1 +13.3 +22.6 0.2
15 18.08 З 1 н/о н/о +21.4 +10.4 49 +23 +23 комфорт 1014.1 1013.3 +21.3 +23.8
18 18.08 З 2 н/о н/о +17.8 +13.1 74 +18 +18 1019.0 1018.2 +17.8 +23.8 0.2
21 18.08 З 3 н/о н/о +17.9 +12.2 69 +18 +18 1020.4 1019.6 +17.7 +23.8
00 19.08 З 3 н/о н/о +17.0 +10.6 66 +17 +17 1022.3 1021.5 +16.8 +23.8 0.2
03 19.08 З 3 н/о н/о +16.0 +8.8 62 +16 +16 1023.2 1022.4 +15.8 +23.8
06 19.08 З 3 н/о н/о +14.0 +11.5 85 +13 +13 1026.3 1025.5 +14.0 2
09 19.08 З 6 н/о н/о +17.7 +9.6 59 +17 +17 1028.5 1027.7 +13.9 +17.7
12 19.08 З 10 н/о н/о +18.2 +8.3 52 +17 +17 1028.5 1027.7 +13.9 +18.7 0.2
15 19.08 З 8 н/о н/о +16.9 +9.8 63 +16 +16 1029.7 1028.9 +16.9 +18.7
18 19.08 В 1 н/о н/о +14.6 +8.6 67 +15 +15 1031.5 1030.7 +14.6 +18.7 0.2
21 19.08 СВ 2 н/о н/о +14.6 +8.1 65 +15 +15 1033.3 1032.5 +13.9 +18.7
03 20.08 СВ 2 н/о н/о +12.9 +8.4 74 +13 +13 1032.3 1031.5 +12.9 +18.7
06 20.08 С 3 н/о н/о +12.3 +7.2 71 +11 +11 1033.2 1032.4 +11.3 0.2
09 20.08 З 3 н/о н/о +18.5 +10.1 58 +19 +19 1032.6 1031.8 +11.3 +18.6
12 20.08 ЮЗ 2 н/о н/о +20.9 +12.7 59 +24 +24 комфорт 1031.2 1030.4 +11.3 +21.3
15 20.08 штиль 0 н/о н/о +17.4 +12.1 71 +17 +17 1030.9 1030.1 +17.4 +21.7
18 20.08 СВ 2 н/о н/о +14.4 +11.2 81 +14 +14 1031.6 1030.8 +14.4 +21.7
21 20.08 СВ 4 н/о н/о +12.8 +10.7 87 +11 +11 1031.9 1031.1 +12.7 +21.7
00 21.08 СВ 2 н/о н/о +11.8 +10.0 89 +11 +11 1030.6 1029.8 +11.8 +21.7
03 21.08 С 2 н/о н/о +11.8 +10.2 90 +11 +11 1028.7 1027.9 +11.2 +21.7
06 21.08 С 2 н/о н/о +11.8 +9.8 88 +11 +11 1028.4 1027.6 +10.3
09 21.08 штиль 0 н/о н/о +20.7 +15.1 70 +23 +23 комфорт 1027.2 1026.4 +10.3 +21.1
12 21.08 Ю 1 н/о н/о +22.6 +15.0 62 +26 +26 жарко 1024.3 1023.5 +10.3 +23.1
15 21.08 штиль 0 н/о н/о +18.4 +13.3 72 +19 +19 1022.7 1021.9 +18.4 +23.5
18 21.08 В 2 н/о н/о +15.2 +12.0 81 +15 +15 1022.2 1021.4 +14.9 +23.5
21 21.08 В 3 н/о н/о +13.3 +9.7 79 +12 +12 1021.4 1020.6 +13.3 +23.5
00 22.08 СВ 3 н/о н/о +12.0 +7.7 75 +11 +11 1020.2 1019.4 +12.0 +23.5
03 22.08 СВ 3 н/о н/о +11.5 +7.2 75 +10 +10 1019.1 1018.3 +11.5 +23.5
06 22.08 СВ 2 н/о н/о +12.5 +7.8 73 +12 +12 1020.2 1019.4 +11.2

 

Местоположение метеостанции Парк Tsitsikamma (Южная Африка): широта -34.03 долгота 23.91 высота над уровнем моря 5 м.

В архиве по умолчанию представлена погода в Парке Tsitsikamma за последнюю неделю. Архивные данные за месяц целиком и за предыдущие месяцы, начиная с января 2011 года, Вы можете получить, выбрав интересующий диапазон дат из раскрывающегося списка и нажав кнопку "Ввод!".


*Определитесь, кто Вы:
робот инопланетянин человек

Внимание! Время в таблицах - всемирное. Для получения местного времени необходимо прибавить поправку, которая равна 2 ч.

Смотрите также архив погоды в соседних городах и на ближайших метеорологических станциях:

Погода в Джоубертине (Южная Африка) (22 км)
Погода в Плеттенберг-Бей (Южная Африка) (54 км)
Погода в Найсне (Южная Африка) (77 км)
Погода в Патенсие (Южная Африка) (89 км)
Погода на Мысе St. Francis (Южная Африка) (90 км)
Погода в Уиллоуморе (Южная Африка) (92 км)
Погода в Аэропорту Джордж (Южная Африка) (141 км)
Погода в Эйтенхахе (Южная Африка) (146 км)
Погода в Порт-Элизабет (Южная Африка) (158 км)
Погода на Мысе Mossel Bay (Южная Африка) (163 км)

Пояснения к столбцам:

Ветер - указаны скорость ветра в м/с - средняя за 10 мин, порывы в срок и между сроками (в фигурных скобках) и направление, откуда дует ветер: С - северный, СВ - северо-восточный, В - восточный, ЮВ - юго-восточный, Ю - южный, ЮЗ - юго-западный, З - западный, СЗ - северо-западный.
Видимость - горизонтальная дальность видимости в метрах или километрах. При видимости от 1 до 10 км при отсутствии осадков обычно наблюдается дымка, при ухудшении видимости до 1 км и менее - туман. В сухую погоду видимость может ухудшаться дымом, пылью или мглою.
Явления - указаны атмосферные явления, наблюдавшиеся в срок или в последний час перед сроком; фигурными скобками обозначены явления, наблюдавшиеся между сроками (за 1-3 часа до срока); квадратными скобками обозначены град или гололедные отложения с указанием их диаметра в мм.
Облачность - указаны через наклонную черту общая и нижняя облачность в баллах и высота нижней границы облаков в метрах; квадратными скобками обозначены формы облаков: Ci - перистые, Cs - перисто-слоистые, Cc - перисто-кучевые, Ac - высококучевые, As - высокослоистые, Sc - слоисто-кучевые, Ns - слоисто-дождевые, Cu - кучевые, Cb - кучево-дождевые. Подробнее классификацию облаков см. в Атласе облаков (PDF).
T - Температура воздуха - температура, измеренная на высоте 2 м над землей.
Td - Температура точки росы - температура, при понижении до которой содержащийся в воздухе водяной пар достигнет насыщения.
f - Относительная влажность воздуха - влажноcть воздуха, измеренная на высоте 2 м над землей.
Te - Эффективная температура - температура, которую ощущает одетый по сезону человек в тени. Характеристика душности погоды. При расчете учитывается влияние влажности воздуха и скорости ветра на теплоощущения человека.
Tes - Эффективная температура на солнце - температура, которую ощущает человек, с поправкой на солнечный нагрев. Характеристика знойности погоды. Зависит от высоты солнца над горизонтом, облачности и скорости ветра. Ночью, в пасмурную погоду, а также при ветре 12 м/с и более поправка равна нулю.
P - Атмосферное давление - приведенное к уровню моря атмосферное давление.
Po - Атмосферное давление - измеренное на уровне метеостанции атмосферное давление.
Tmin - Минимальная температура - минимум температуры воздуха на высоте 2 м над землей.
Tmax - Максимальная температура - максимум температуры воздуха на высоте 2 м над землей.
R - Количество осадков - Количество выпавших осадков за период времени, мм. При наведении курсора мыши на число - период времени, за который выпало указанное количество осадков.
R24 - Количество осадков - Количество выпавших осадков за 24 часа, мм.
S - Снежный покров - Высота снежного покрова, см. При наведении курсора мыши на число - состояние снежного покрова и степень покрытия местности в баллах.